Weather History for Wink, TX

Change the Weather History Date:

Thursday, August 2, 2012

  Actual Average Record
Temperature  
Mean Temperature 91 °F -  
Max Temperature 109 °F 96 °F 109 °F (2012)
Min Temperature 75 °F 69 °F 62 °F (1974)
Cooling Degree Days 26    
Growing Degree Days 41 (Base 50)    
Moisture  
Dew Point 48 °F    
Average Humidity 24    
Maximum Humidity 40    
Minimum Humidity 12    
Precipitation  
Precipitation 0.00 in - - ()
Sea Level Pressure  
Sea Level Pressure 29.74 in    
Wind  
Wind Speed 9 mph (SE)    
Max Wind Speed 15 mph    
Max Gust Speed -    
Visibility 10 miles    
Events      
Averages and records for this station are not official NWS values.
T = Trace of Precipitation, MM = Missing Value Source: NWS Daily Summary

Daily Weather History Graph

Daily Weather History Graph

Search for Another Location

Airport:

Trip Planner

Search our weather history database for the weather conditions in past years. The results will help you decide how hot, cold, wet, or windy it might be!

Date:

Astronomy

Aug. 02, 2012 Rise Set
Actual Time 7:09 AM CDT 8:48 PM CDT
Civil Twilight 6:43 AM CDT 9:14 PM CDT
Nautical Twilight 6:11 AM CDT 9:46 PM CDT
Astronomical Twilight 5:37 AM CDT 10:19 PM CDT
Moon 9:03 PM CDT 7:43 AM CDT
Length of Visible Light 14h 31m
Length of Day
13h 38m
Full, 100% of the Moon is Illuminated
Aug 2
Full
Aug 9
Last Quarter
Aug 17
New
Aug 24
First Quarter
Aug 31
Full

Hourly Weather History & Observations

Time (CDT) Temp. Heat Index Dew Point Humidity Pressure Visibility Wind Dir Wind Speed Gust Speed Precip Events Conditions
12:53 AM 87.1 °F - 44.1 °F 22% 29.78 in 10.0 mi SSE 10.4 mph - N/A   Clear
1:53 AM 84.9 °F - 45.0 °F 25% 29.78 in 10.0 mi SSE 10.4 mph - N/A   Clear
2:53 AM 82.0 °F - 46.9 °F 29% 29.78 in 10.0 mi SE 8.1 mph - N/A   Clear
3:53 AM 79.0 °F - 46.9 °F 32% 29.77 in 10.0 mi SE 6.9 mph - N/A   Clear
4:53 AM 75.9 °F - 46.9 °F 36% 29.76 in 10.0 mi ESE 4.6 mph - N/A   Clear
5:53 AM 78.1 °F - 48.0 °F 35% 29.75 in 10.0 mi ESE 9.2 mph - N/A   Clear
6:53 AM 77.0 °F - 48.9 °F 37% 29.75 in 10.0 mi ESE 9.2 mph - N/A   Clear
7:53 AM 77.0 °F - 51.1 °F 40% 29.77 in 10.0 mi SE 10.4 mph - N/A   Clear
8:53 AM 81.0 °F - 51.1 °F 35% 29.78 in 10.0 mi SE 10.4 mph - N/A   Clear
9:53 AM 86.0 °F - 51.1 °F 30% 29.79 in 10.0 mi SSE 12.7 mph - N/A   Clear
10:53 AM 90.0 °F 87.5 °F 53.1 °F 28% 29.78 in 10.0 mi SSE 6.9 mph - N/A   Clear
11:53 AM 93.0 °F 90.6 °F 53.1 °F 26% 29.77 in 10.0 mi Calm Calm - N/A   Clear
12:53 PM 98.1 °F - 52.0 °F 21% 29.75 in 10.0 mi Variable 4.6 mph - N/A   Clear
1:53 PM 100.9 °F - 52.0 °F 19% 29.73 in 10.0 mi Variable 4.6 mph - N/A   Clear
2:53 PM 104.0 °F - 51.1 °F 17% 29.71 in 10.0 mi Variable 4.6 mph - N/A   Clear
3:53 PM 106.0 °F - 48.0 °F 14% 29.69 in 10.0 mi SE 9.2 mph - N/A   Clear
4:53 PM 107.6 °F - 44.6 °F 12% 29.83 in 10.0 mi Calm Calm - N/A   Clear
5:53 PM 106.0 °F - 43.0 °F 12% 29.65 in 10.0 mi SE 6.9 mph - N/A   Clear
6:53 PM 106.0 °F - 43.0 °F 12% 29.63 in 10.0 mi East 6.9 mph - N/A   Clear
7:53 PM 104.0 °F - 43.0 °F 13% 29.63 in 10.0 mi ESE 10.4 mph - N/A   Clear
8:53 PM 99.0 °F - 45.0 °F 16% 29.65 in 10.0 mi SE 12.7 mph - N/A   Clear
9:53 PM 95.0 °F - 44.1 °F 17% 29.66 in 10.0 mi SE 12.7 mph - N/A   Clear
10:53 PM 93.2 °F - 50.0 °F 23% 29.84 in 10.0 mi SSE 15.0 mph - N/A   Clear
11:53 PM 90.0 °F - 48.0 °F 24% 29.70 in 10.0 mi SSE 12.7 mph - N/A   Clear